Year,Month,Day,Hour,Minute,Value (Times are PST for temperature in C)
2012,08,14,11,11,22.70
2012,08,14,11,12,22.70
2012,08,14,11,13,22.70
2012,08,14,11,14,22.70
2012,08,14,11,15,22.70
2012,08,14,11,16,22.70
2012,08,14,11,17,22.80
2012,08,14,11,18,22.80
2012,08,14,11,19,22.80
2012,08,14,11,20,22.90
2012,08,14,11,21,22.90
2012,08,14,11,22,22.90
2012,08,14,11,23,23.00
2012,08,14,11,24,23.00
2012,08,14,11,25,23.00
2012,08,14,11,26,23.10
2012,08,14,11,27,23.20
2012,08,14,11,28,23.20
2012,08,14,11,29,23.20
2012,08,14,11,30,23.30
2012,08,14,11,31,23.30
2012,08,14,11,32,23.30
2012,08,14,11,33,23.20
2012,08,14,11,34,23.20
2012,08,14,11,35,23.20
2012,08,14,11,36,23.20
2012,08,14,11,37,23.20
2012,08,14,11,38,23.20
2012,08,14,11,39,23.20
2012,08,14,11,40,23.20
2012,08,14,11,41,23.20
2012,08,14,11,42,23.20
2012,08,14,11,43,23.30
2012,08,14,11,44,23.30
2012,08,14,11,45,23.30
2012,08,14,11,46,23.30
2012,08,14,11,47,23.40
2012,08,14,11,48,23.40
2012,08,14,11,49,23.40
2012,08,14,11,50,23.50
2012,08,14,11,51,23.60
2012,08,14,11,52,23.70
2012,08,14,11,53,23.80
2012,08,14,11,54,23.80
2012,08,14,11,55,23.80
2012,08,14,11,56,23.80
2012,08,14,11,57,23.80
2012,08,14,11,58,23.90
2012,08,14,11,59,23.90
2012,08,14,12,00,23.90
2012,08,14,12,01,23.90
2012,08,14,12,02,23.70
2012,08,14,12,03,23.70
2012,08,14,12,04,23.60
2012,08,14,12,05,23.60
2012,08,14,12,06,23.60
2012,08,14,12,07,23.60
2012,08,14,12,08,23.50
2012,08,14,12,09,23.50
2012,08,14,12,10,23.40
2012,08,14,12,11,23.40
2012,08,14,12,12,23.50
2012,08,14,12,13,23.60
2012,08,14,12,14,23.70
2012,08,14,12,15,23.70
2012,08,14,12,16,23.80
2012,08,14,12,17,23.90
2012,08,14,12,18,23.90
2012,08,14,12,19,23.90
2012,08,14,12,20,23.90
2012,08,14,12,21,24.00
2012,08,14,12,22,24.00
2012,08,14,12,23,24.10
2012,08,14,12,24,24.10
2012,08,14,12,25,24.20
2012,08,14,12,26,24.20
2012,08,14,12,27,24.30
2012,08,14,12,28,24.40
2012,08,14,12,29,24.40
2012,08,14,12,30,24.40
2012,08,14,12,31,24.50
2012,08,14,12,32,24.60
2012,08,14,12,33,24.60
2012,08,14,12,34,24.60
2012,08,14,12,35,24.60
2012,08,14,12,36,24.70
2012,08,14,12,37,24.70
2012,08,14,12,38,24.70
2012,08,14,12,39,24.70
2012,08,14,12,40,24.70
2012,08,14,12,41,24.60
2012,08,14,12,42,24.50
2012,08,14,12,43,24.50
2012,08,14,12,44,24.40
2012,08,14,12,45,24.30
2012,08,14,12,46,24.30
2012,08,14,12,47,24.20
2012,08,14,12,48,24.20
2012,08,14,12,49,24.10
2012,08,14,12,50,24.00
2012,08,14,12,51,23.90
2012,08,14,12,52,23.80
2012,08,14,12,53,23.70
2012,08,14,12,54,23.70
2012,08,14,12,55,23.60
2012,08,14,12,56,23.60
2012,08,14,12,57,23.60
2012,08,14,12,58,23.60
2012,08,14,12,59,23.70
2012,08,14,13,00,23.70
2012,08,14,13,01,23.70
2012,08,14,13,02,23.70
2012,08,14,13,03,23.70
2012,08,14,13,04,23.70
2012,08,14,13,05,23.70
2012,08,14,13,06,23.70
2012,08,14,13,07,23.70
2012,08,14,13,08,23.80
2012,08,14,13,09,23.80
2012,08,14,13,10,23.80
2012,08,14,13,11,23.80
2012,08,14,13,12,23.80
2012,08,14,13,13,23.70
2012,08,14,13,14,23.70
2012,08,14,13,15,23.80
2012,08,14,13,16,23.80
2012,08,14,13,17,23.80
2012,08,14,13,18,23.80
2012,08,14,13,19,23.80
2012,08,14,13,20,23.80
2012,08,14,13,21,23.80
2012,08,14,13,22,23.80
2012,08,14,13,23,23.80
2012,08,14,13,24,23.80
2012,08,14,13,25,23.80
2012,08,14,13,26,23.80
2012,08,14,13,27,23.70
2012,08,14,13,28,23.70
2012,08,14,13,29,23.70
2012,08,14,13,30,23.70
2012,08,14,13,31,23.60
2012,08,14,13,32,23.60
2012,08,14,13,33,23.60
2012,08,14,13,34,23.60
2012,08,14,13,35,23.70
2012,08,14,13,36,23.70
2012,08,14,13,37,23.70
2012,08,14,13,38,23.60
2012,08,14,13,39,23.70
2012,08,14,13,40,23.60
2012,08,14,13,41,23.60
2012,08,14,13,42,23.70
2012,08,14,13,43,23.80
2012,08,14,13,44,23.80
2012,08,14,13,45,23.80
2012,08,14,13,46,23.80
2012,08,14,13,47,23.90
2012,08,14,13,48,23.90
2012,08,14,13,49,24.00
2012,08,14,13,50,24.10
2012,08,14,13,51,24.10
2012,08,14,13,52,24.20
2012,08,14,13,53,24.30
2012,08,14,13,54,24.30
2012,08,14,13,55,24.30
2012,08,14,13,56,24.30
2012,08,14,13,57,24.30
2012,08,14,13,58,24.30
2012,08,14,13,59,24.30
2012,08,14,14,00,24.30
2012,08,14,14,01,24.40
2012,08,14,14,02,24.40
2012,08,14,14,03,24.30
2012,08,14,14,04,24.40
2012,08,14,14,05,24.50
2012,08,14,14,06,24.50
2012,08,14,14,07,24.60
2012,08,14,14,08,24.50
2012,08,14,14,09,24.50
2012,08,14,14,10,24.50
2012,08,14,14,11,24.40
2012,08,14,14,12,24.40
2012,08,14,14,13,24.40
2012,08,14,14,14,24.40
2012,08,14,14,15,24.30
2012,08,14,14,16,24.30
2012,08,14,14,17,24.30
2012,08,14,14,18,24.30
2012,08,14,14,19,24.30
2012,08,14,14,20,24.30
2012,08,14,14,21,24.30
2012,08,14,14,22,24.30
2012,08,14,14,23,24.30
2012,08,14,14,24,24.30
2012,08,14,14,25,24.20
2012,08,14,14,26,24.30
2012,08,14,14,27,24.30
2012,08,14,14,28,24.20
2012,08,14,14,29,24.20
2012,08,14,14,30,24.20
2012,08,14,14,31,24.20
2012,08,14,14,32,24.20
2012,08,14,14,33,24.20
2012,08,14,14,34,24.20
2012,08,14,14,35,24.30
2012,08,14,14,36,24.40
2012,08,14,14,37,24.50
2012,08,14,14,38,24.60
2012,08,14,14,39,24.70
2012,08,14,14,40,24.80
2012,08,14,14,41,24.80
2012,08,14,14,42,24.90
2012,08,14,14,43,24.90
2012,08,14,14,44,24.90
2012,08,14,14,45,24.90
2012,08,14,14,46,24.90
2012,08,14,14,47,24.90
2012,08,14,14,48,24.80
2012,08,14,14,49,24.70
2012,08,14,14,50,24.70
2012,08,14,14,51,24.70
2012,08,14,14,52,24.70
2012,08,14,14,53,24.70
2012,08,14,14,54,24.70
2012,08,14,14,55,24.70
2012,08,14,14,56,24.70
2012,08,14,14,57,24.80
2012,08,14,14,58,24.80
2012,08,14,14,59,24.90
2012,08,14,15,00,24.90
2012,08,14,15,01,24.90
2012,08,14,15,02,24.90
2012,08,14,15,03,24.90
2012,08,14,15,04,24.90
2012,08,14,15,05,24.90
2012,08,14,15,06,24.90
2012,08,14,15,07,24.80
2012,08,14,15,08,24.70
2012,08,14,15,09,24.70
2012,08,14,15,10,24.60
2012,08,14,15,11,24.60
2012,08,14,15,12,24.50
2012,08,14,15,13,24.50
2012,08,14,15,14,24.50
2012,08,14,15,15,24.50
2012,08,14,15,16,24.40
2012,08,14,15,17,24.40
2012,08,14,15,18,24.50
2012,08,14,15,19,24.50
2012,08,14,15,20,24.60
2012,08,14,15,21,24.60
2012,08,14,15,22,24.60
2012,08,14,15,23,24.60
2012,08,14,15,24,24.60
2012,08,14,15,25,24.60
2012,08,14,15,26,24.70
2012,08,14,15,27,24.60
2012,08,14,15,28,24.50
2012,08,14,15,29,24.50
2012,08,14,15,30,24.40
2012,08,14,15,31,24.50
2012,08,14,15,32,24.50
2012,08,14,15,33,24.50
2012,08,14,15,34,24.50
2012,08,14,15,35,24.60
2012,08,14,15,36,24.60
2012,08,14,15,37,24.70
2012,08,14,15,38,24.70
2012,08,14,15,39,24.80
2012,08,14,15,40,24.80
2012,08,14,15,41,24.80
2012,08,14,15,42,24.80
2012,08,14,15,43,24.80
2012,08,14,15,44,24.80
2012,08,14,15,45,24.80
2012,08,14,15,46,24.80
2012,08,14,15,47,24.80
2012,08,14,15,48,24.80
2012,08,14,15,49,24.80
2012,08,14,15,50,24.70
2012,08,14,15,51,24.70
2012,08,14,15,52,24.80
2012,08,14,15,53,24.80
2012,08,14,15,54,24.80
2012,08,14,15,55,24.80
2012,08,14,15,56,24.80
2012,08,14,15,57,24.90
2012,08,14,15,58,24.90
2012,08,14,15,59,24.90
2012,08,14,16,00,24.90
2012,08,14,16,01,24.90
2012,08,14,16,02,24.90
2012,08,14,16,03,24.90
2012,08,14,16,04,24.90
2012,08,14,16,05,24.90
2012,08,14,16,06,24.90
2012,08,14,16,07,24.90
2012,08,14,16,08,25.00
2012,08,14,16,09,25.10
2012,08,14,16,10,25.10
2012,08,14,16,11,25.10
2012,08,14,16,12,25.20
2012,08,14,16,13,25.20
2012,08,14,16,14,25.20
2012,08,14,16,15,25.20
2012,08,14,16,16,25.10
2012,08,14,16,17,25.10
2012,08,14,16,18,25.10
2012,08,14,16,19,25.00
2012,08,14,16,20,25.00
2012,08,14,16,21,25.00
2012,08,14,16,22,24.90
2012,08,14,16,23,24.90
2012,08,14,16,24,24.90
2012,08,14,16,25,24.90
2012,08,14,16,26,24.90
2012,08,14,16,27,24.90
2012,08,14,16,28,24.90
2012,08,14,16,29,24.90
2012,08,14,16,30,25.00
2012,08,14,16,31,25.00
2012,08,14,16,32,25.10
2012,08,14,16,33,25.10
2012,08,14,16,34,25.10
2012,08,14,16,35,25.10
2012,08,14,16,36,25.10
2012,08,14,16,37,25.10
2012,08,14,16,38,25.10
2012,08,14,16,39,25.10
2012,08,14,16,40,25.10
2012,08,14,16,41,25.10
2012,08,14,16,42,25.10
2012,08,14,16,43,25.10
2012,08,14,16,44,25.10
2012,08,14,16,45,25.10
2012,08,14,16,46,25.00
2012,08,14,16,47,25.00
2012,08,14,16,48,25.10
2012,08,14,16,49,25.00
2012,08,14,16,50,25.00
2012,08,14,16,51,24.90
2012,08,14,16,52,24.90
2012,08,14,16,53,24.90
2012,08,14,16,54,25.00
2012,08,14,16,55,24.90
2012,08,14,16,56,24.90
2012,08,14,16,57,24.90
2012,08,14,16,58,24.90
2012,08,14,16,59,24.90
2012,08,14,17,00,24.90
2012,08,14,17,01,24.80
2012,08,14,17,02,24.80
2012,08,14,17,03,24.80
2012,08,14,17,04,24.90
2012,08,14,17,05,24.90
2012,08,14,17,06,24.90
2012,08,14,17,07,24.90
2012,08,14,17,08,24.90
2012,08,14,17,09,24.80
2012,08,14,17,10,24.70
2012,08,14,17,11,24.70
2012,08,14,17,12,24.70
2012,08,14,17,13,24.80
2012,08,14,17,14,24.80
2012,08,14,17,15,24.80
2012,08,14,17,16,24.80
2012,08,14,17,17,24.80
2012,08,14,17,18,24.80
2012,08,14,17,19,24.80
2012,08,14,17,20,24.80
2012,08,14,17,21,24.80
2012,08,14,17,22,24.80
2012,08,14,17,23,24.80
2012,08,14,17,24,24.80
2012,08,14,17,25,24.80
2012,08,14,17,26,24.80
2012,08,14,17,27,24.80
2012,08,14,17,28,24.90
2012,08,14,17,29,24.90
2012,08,14,17,30,24.90
2012,08,14,17,31,24.90
2012,08,14,17,32,24.80
2012,08,14,17,33,24.80
2012,08,14,17,34,24.80
2012,08,14,17,35,24.80
2012,08,14,17,36,24.80
2012,08,14,17,37,24.80
2012,08,14,17,38,24.80
2012,08,14,17,39,24.80
2012,08,14,17,40,24.80
2012,08,14,17,41,24.80
2012,08,14,17,42,24.80
2012,08,14,17,43,24.80
2012,08,14,17,44,24.80
2012,08,14,17,45,24.80
2012,08,14,17,46,24.80
2012,08,14,17,47,24.80
2012,08,14,17,48,24.80
2012,08,14,17,49,24.70
2012,08,14,17,50,24.60
2012,08,14,17,51,24.60
2012,08,14,17,52,24.50
2012,08,14,17,53,24.50
2012,08,14,17,54,24.40
2012,08,14,17,55,24.40
2012,08,14,17,56,24.40
2012,08,14,17,57,24.40
2012,08,14,17,58,24.40
2012,08,14,17,59,24.30
2012,08,14,18,00,24.40
2012,08,14,18,01,24.40
2012,08,14,18,02,24.40
2012,08,14,18,03,24.40
2012,08,14,18,04,24.40
2012,08,14,18,05,24.50
2012,08,14,18,06,24.50
2012,08,14,18,07,24.50
2012,08,14,18,08,24.50
2012,08,14,18,09,24.50
2012,08,14,18,10,24.50
2012,08,14,18,11,24.50
2012,08,14,18,12,24.50
2012,08,14,18,13,24.50
2012,08,14,18,14,24.60
2012,08,14,18,15,24.60
2012,08,14,18,16,24.70
2012,08,14,18,17,24.70
2012,08,14,18,18,24.70
2012,08,14,18,19,24.70
2012,08,14,18,20,24.70
2012,08,14,18,21,24.70
2012,08,14,18,22,24.80
2012,08,14,18,23,24.80
2012,08,14,18,24,24.80
2012,08,14,18,25,24.80
2012,08,14,18,26,24.80
2012,08,14,18,27,24.70
2012,08,14,18,28,24.70
2012,08,14,18,29,24.70
2012,08,14,18,30,24.70
2012,08,14,18,31,24.60
2012,08,14,18,32,24.60
2012,08,14,18,33,24.60
2012,08,14,18,34,24.60
2012,08,14,18,35,24.60
2012,08,14,18,36,24.60
2012,08,14,18,37,24.60
2012,08,14,18,38,24.60
2012,08,14,18,39,24.50
2012,08,14,18,40,24.50
2012,08,14,18,41,24.50
2012,08,14,18,42,24.50
2012,08,14,18,43,24.50
2012,08,14,18,44,24.50
2012,08,14,18,45,24.50
2012,08,14,18,46,24.50
2012,08,14,18,47,24.50
2012,08,14,18,48,24.50
2012,08,14,18,49,24.50
2012,08,14,18,50,24.50
2012,08,14,18,51,24.50
2012,08,14,18,52,24.60
2012,08,14,18,53,24.60
2012,08,14,18,54,24.60
2012,08,14,18,55,24.60
2012,08,14,18,56,24.60
2012,08,14,18,57,24.60
2012,08,14,18,58,24.60
2012,08,14,18,59,24.70
2012,08,14,19,00,24.70
2012,08,14,19,01,24.70
2012,08,14,19,02,24.70
2012,08,14,19,03,24.70
2012,08,14,19,04,24.70
2012,08,14,19,05,24.70
2012,08,14,19,06,24.70
2012,08,14,19,07,24.70
2012,08,14,19,08,24.60
2012,08,14,19,09,24.60
2012,08,14,19,10,24.50
2012,08,14,19,11,24.50
2012,08,14,19,12,24.50
2012,08,14,19,13,24.40
2012,08,14,19,14,24.40
2012,08,14,19,15,24.30
2012,08,14,19,16,24.30
2012,08,14,19,17,24.20
2012,08,14,19,18,24.20
2012,08,14,19,19,24.10
2012,08,14,19,20,24.10
2012,08,14,19,21,24.10
2012,08,14,19,22,24.00
2012,08,14,19,23,24.00
2012,08,14,19,24,23.90
2012,08,14,19,25,23.90
2012,08,14,19,26,23.80
2012,08,14,19,27,23.80
2012,08,14,19,28,23.80
2012,08,14,19,29,23.70
2012,08,14,19,30,23.70
2012,08,14,19,31,23.70
2012,08,14,19,32,23.60
2012,08,14,19,33,23.60
2012,08,14,19,34,23.60
2012,08,14,19,35,23.60
2012,08,14,19,36,23.50
2012,08,14,19,37,23.50
2012,08,14,19,38,23.50
2012,08,14,19,39,23.50
2012,08,14,19,40,23.40
2012,08,14,19,41,23.40
2012,08,14,19,42,23.40
2012,08,14,19,43,23.40
2012,08,14,19,44,23.40
2012,08,14,19,45,23.30
2012,08,14,19,46,23.30
2012,08,14,19,47,23.30
2012,08,14,19,48,23.20
2012,08,14,19,49,23.20
2012,08,14,19,50,23.20
2012,08,14,19,51,23.20
2012,08,14,19,52,23.10
2012,08,14,19,53,23.10
2012,08,14,19,54,23.00
2012,08,14,19,55,23.00
2012,08,14,19,56,22.90
2012,08,14,19,57,22.80
2012,08,14,19,58,22.80
2012,08,14,19,59,22.70
2012,08,14,20,00,22.70
2012,08,14,20,01,22.70
2012,08,14,20,02,22.60
2012,08,14,20,03,22.50
2012,08,14,20,04,22.50
2012,08,14,20,05,22.40
2012,08,14,20,06,22.30
2012,08,14,20,07,22.30
2012,08,14,20,08,22.20
2012,08,14,20,09,22.20
2012,08,14,20,10,22.10
2012,08,14,20,11,22.00
2012,08,14,20,12,22.00
2012,08,14,20,13,21.90
2012,08,14,20,14,21.80
2012,08,14,20,15,21.80
2012,08,14,20,16,21.80
2012,08,14,20,17,21.70
2012,08,14,20,18,21.70
2012,08,14,20,19,21.70
2012,08,14,20,20,21.70
2012,08,14,20,21,21.70
2012,08,14,20,22,21.70
2012,08,14,20,23,21.70
2012,08,14,20,24,21.70
2012,08,14,20,25,21.70
2012,08,14,20,26,21.70
2012,08,14,20,27,21.70
2012,08,14,20,28,21.70
